Regional Weather Roundup
Issued by NWS Grand Forks, ND

Home | Current Version | Previous Version | Text Only | Print | Product List | Glossary Off
Versions: 1 2 3 4 5 6 7 8 9 10 11 12 13 14 15 16 17 18 19 20 21 22 23 24 25 26 27 28 29 30 31 32 33 34 35 36 37 38 39 40 41 42 43 44 45 46 47 48 49 50

000
ASUS43 KFGF 230631
RWRFGF
PRAIRIE TO PINES  WEATHER ROUNDUP
NATIONAL WEATHER SERVICE EASTERN NORTH DAKOTA/GRAND FORKS ND
100 AM CDT SUN JUL 23 2017

 **SATELLITE DATA USED TO AUGMENT SKY COVER AT AUTOMATED STATIONS**
 *****  WEATHER ACROSS EASTERN NORTH DAKOTA  *****

CITY           SKY/WX    TMP DP  RH WIND       PRES   REMARKS
GRAND FORKS    FAIR      63  60  90 NW9       29.91R
6HR MIN TEMP:  63; 6HR MAX TEMP:  76; 6HR PCP: TRACE;

GRAND FRKS AFB FAIR      60  59  94 NW8       29.92S
DEVILS LAKE    FAIR      62  58  86 N10       29.99R
6HR MIN TEMP:  61; 6HR MAX TEMP:  73;

FARGO          FAIR      61  58  90 W8        29.91R
WAHPETON ARPT  FAIR      59  55  88 W3        29.93S
$$

 ***** WEATHER ACROSS CENTRAL AND WESTERN NORTH DAKOTA  *****

CITY           SKY/WX    TMP DP  RH WIND       PRES   REMARKS
BISMARCK       FAIR      65  55  70 N3        30.04R
6HR MIN TEMP:  64; 6HR MAX TEMP:  84;

MINOT          FAIR      58  53  84 NW6       30.03S
6HR MIN TEMP:  58; 6HR MAX TEMP:  77;

JAMESTOWN      FAIR      61  57  87 NW5       29.97S
6HR MIN TEMP:  61; 6HR MAX TEMP:  79;

MINOT AFB      FAIR      55  52  90 NW6       30.02S
GARRISON         N/A     57  54  89 N5        30.03S
WILLISTON      FAIR      64  52  64 N5        30.05S
6HR MIN TEMP:  60; 6HR MAX TEMP:  85;

DICKINSON      FAIR      61  50  67 E3        30.06R
6HR MIN TEMP:  60; 6HR MAX TEMP:  83;

HETTINGER      FAIR      59  49  69 NE6       30.09R
6HR MIN TEMP:  58; 6HR MAX TEMP:  85;

$$

 *****  OTHER AIRPORT OBSERVATIONS IN OUR AREA  *****

CITY           SKY/WX    TMP DP  RH WIND       PRES   REMARKS
WALHALLA       NOT AVBL
GRAFTON AIRPOR CLOUDY    64  63  94 NW13      29.93S
VALLEY CITY AR FAIR      61  61 100 NW10      29.97S
CANDO          NOT AVBL
CAVALIER APRT  CLOUDY    64  61  88 NW13G20   29.92S
GWINNER        CLEAR     63  59  88 CALM      29.95S
SHEYENNE NWR     N/A     64  59  85 NW3       29.95S
ROLLA            N/A     57  57 100 NW8       30.02S
 ***** THE ABOVE OBSERVATIONS ARE NON NWS ARE NOT QUALITY
       CONTROLLED AND MAY MIS-REPORT RAIN FOR SNOW...
$$

  *****  WEATHER ACROSS NORTHERN MINNESOTA  *****

CITY           SKY/WX    TMP DP  RH WIND       PRES   REMARKS
FLAG ISLAND    MOCLDY    64  61  88 N13       29.85R
WARROAD        CLOUDY    59  55  88 W5        29.87S
ROSEAU         CLOUDY    61  55  82 NW6       29.88R
HALLOCK        CLOUDY    63  61  94 NW8       29.90R
THF RVR FALLS  CLOUDY    61  59  94 NW10      29.91R
BAUDETTE       FAIR      60  59  96 N3        29.84R
6HR MIN TEMP:  60; 6HR MAX TEMP:  70; 6HR PCP:  0.12;

WASKISH        FAIR      63  59  88 NW12      29.86S
CROOKSTON      MOCLDY    63  61  94 NW8       29.91S
STEPHEN NDAWN    N/A    N/A N/A N/A NW9         N/A
GREENBUSH NDAW   N/A     61  61 100 NW6         N/A
$$
  *****  WEATHER ACROSS CENTRAL AND WEST MINNESOTA  *****

CITY           SKY/WX    TMP DP  RH WIND       PRES   REMARKS
FOSSTON        MOCLDY    57  57 100 NW7       29.90S
BEMIDJI        MOCLDY    60  57  88 W3        29.87F
PARK RAPIDS    FAIR      60  56  86 NW5       29.89S
6HR MIN TEMP:  60; 6HR MAX TEMP:  79;

ELBOW LAKE     FAIR      66  58  76 CALM      29.92S
6HR MIN TEMP:  67; 6HR MAX TEMP:  79;

WADENA         FAIR      61  55  82 CALM      29.89F
DETROIT LAKES  FAIR      61  57  88 NW6       29.91F
MOORHEAD       FAIR      61  57  88 W5        29.92S
FERGUS FALLS   FAIR      63  57  82 NW3       29.91F
MORRIS MN      FAIR      66  61  82 N9        29.91S
STAPLES        FAIR      61  54  77 NW6       29.89S
$$
  *****  WEATHER ELSEWHERE ACROSS MINNESOTA  *****

CITY           SKY/WX    TMP DP  RH WIND       PRES   REMARKS
DULUTH         CLOUDY    54  54 100 E5        29.85R
6HR MIN TEMP:  54; 6HR MAX TEMP:  64;

INTRNTL FALLS  MOCLDY    56  55  97 W3        29.84R FOG
6HR MIN TEMP:  58; 6HR MAX TEMP:  74; 6HR PCP:  0.02;

ELY            LGT RAIN  61  59  94 CALM      29.82F
CLOQUET        FOG       55  55 100 CALM      29.85S VSB 1/4
WHEATON        FAIR      64  59  82 CALM      29.94S
BRAINERD       FAIR      68  55  63 NW5       29.87S
6HR MIN TEMP:  68; 6HR MAX TEMP:  80;

HIBBING        FAIR      60  57  89 W8        29.84R
6HR MIN TEMP:  60; 6HR MAX TEMP:  77;

ALEXANDRIA     FAIR      68  59  73 N9        29.92S
6HR MIN TEMP:  68; 6HR MAX TEMP:  80;

SAINT CLOUD    MOCLDY    67  62  84 NW6       29.86F
6HR MIN TEMP:  65; 6HR MAX TEMP:  83;

MINNEAPOLIS    FAIR      72  61  68 NW6       29.84S
6HR MIN TEMP:  72; 6HR MAX TEMP:  88;

$$

  *****  WEATHER ACROSS SOUTH DAKOTA  *****

CITY           SKY/WX    TMP DP  RH WIND       PRES   REMARKS
SIOUX FALLS    FAIR      72  66  81 W3        29.93R
6HR MIN TEMP:  69; 6HR MAX TEMP:  86;

BROOKINGS      FAIR      68  59  73 NW7       29.95R
WATERTOWN      FAIR      63  60  90 N8        29.96R
6HR MIN TEMP:  63; 6HR MAX TEMP:  83;

HURON          FAIR      67  58  72 NW7       29.96R
6HR MIN TEMP:  66; 6HR MAX TEMP:  88;

SISSETON         N/A     64  61  90 NW7       29.93S
ABERDEEN       FAIR      66  61  84 N8        29.97R
6HR MIN TEMP:  65; 6HR MAX TEMP:  88;

MITCHELL       FAIR      71  62  73 NW9       29.96R
PIERRE         FAIR      68  49  50 NE9       30.00R
6HR MIN TEMP:  68; 6HR MAX TEMP:  94;

MOBRIDGE       FAIR      65  55  70 NE7       30.00R
RAPID CITY     FAIR      64  44  48 N9        30.11R
6HR MIN TEMP:  64; 6HR MAX TEMP:  91;

$$

  *****  SOME WEATHER IN NEARBY STATES *****

CITY           SKY/WX    TMP DP  RH WIND       PRES   REMARKS
GLASGOW MT     FAIR      66  46  48 MISG      30.04R
6HR MIN TEMP:  65; 6HR MAX TEMP:  87;

GREAT FALLS MT FAIR      71  39  31 N3        30.09S
6HR MIN TEMP:  69; 6HR MAX TEMP:  89;

CHEYENNE WY    FAIR      65  47  52 SW6       30.27R
6HR MIN TEMP:  65; 6HR MAX TEMP:  85;

SCOTTSBLUFF NE FAIR      68  51  54 E9        30.13R
6HR MIN TEMP:  67; 6HR MAX TEMP:  87;

OMAHA NE       MOCLDY    76  71  85 CALM      29.93S
6HR MIN TEMP:  75; 6HR MAX TEMP:  84; 6HR PCP: TRACE;

DES MOINES IA  FAIR      79  73  82 NW6       29.87S
6HR MIN TEMP:  78; 6HR MAX TEMP:  86;

DAVENPORT IA   FAIR      75  73  93 W5        29.85R
6HR MIN TEMP:  73; 6HR MAX TEMP:  79;

CHICAGO IL     FAIR      73  69  87 S3        29.79S
6HR MIN TEMP:  73; 6HR MAX TEMP:  83;

EAU CLAIRE WI  FOG       66  66 100 CALM      29.80F VSB<1/4
6HR MIN TEMP:  66; 6HR MAX TEMP:  75;

LA CROSSE WI   FAIR      70  68  93 CALM      29.83S
6HR MIN TEMP:  70; 6HR MAX TEMP:  85; 6HR PCP:  0.20;

$$

  *****  SOME NATIONAL WEATHER *****

CITY           SKY/WX    TMP DP  RH WIND       PRES   REMARKS
LA GUARDIA NY  LGT RAIN  73  71  93 VRB5      29.72F
6HR MIN TEMP:  72; 6HR MAX TEMP:  83; 6HR PCP:  0.58;

RALEIGH NC     FAIR      83  73  72 SW15      29.87F
6HR MIN TEMP:  83; 6HR MAX TEMP:  92;

ATLANTA GA     FAIR      76  75  97 W5        29.98F
6HR MIN TEMP:  76; 6HR MAX TEMP:  81;

NEW ORLEANS LA FAIR      77  75  93 S5        29.97F
6HR MIN TEMP:  77; 6HR MAX TEMP:  81;

OKLAHOMA CITY  FAIR      82  71  69 S8        29.91R
6HR MIN TEMP:  82; 6HR MAX TEMP:  97;

ALBUQUERQUE NM CLOUDY    72  59  63 SE15      30.24R
6HR MIN TEMP:  69; 6HR MAX TEMP:  94; 6HR PCP:  0.32;

SALT LAKE CITY MOCLDY    81  50  33 S5        30.06R
6HR MIN TEMP:  80; 6HR MAX TEMP:  98;

LOS ANGELES CA FAIR      68  63  84 W7        29.90R
6HR MIN TEMP:  68; 6HR MAX TEMP:  74;

BOISE ID       FAIR



USA.gov is the U.S. government's official web portal to all federal, state and local government web resources and services.